This is the latest recevied weather packets stored in our database for station/object LZ1HCO-25. If no packets are shown the sender has not sent any weather packets the latest 10 day(s).
| Time | Temp. | Humidity | Pressure | Rain* | Wind** | Luminosity | Snow |
|---|---|---|---|---|---|---|---|
| 1778075308 | 24.44° C | 54% | 966 hPa | - | - | 0 W/m² | - |
| 1778074996 | 24.44° C | 51% | 966 hPa | - | - | 0 W/m² | - |
| 1778074685 | 24.44° C | 55% | 966 hPa | - | - | 0 W/m² | - |
| 1778074373 | 24.44° C | 52% | 966 hPa | - | - | 0 W/m² | - |
| 1778074062 | 25.56° C | 53% | 966 hPa | - | - | 0 W/m² | - |
| 1778073751 | 26.11° C | 53% | 966 hPa | - | - | 0 W/m² | - |
| 1778073439 | 25° C | 50% | 966 hPa | - | - | 0 W/m² | - |
| 1778073298 | 25.56° C | 51% | 966 hPa | - | - | 0 W/m² | - |
| 1778072987 | 25° C | 51% | 966 hPa | - | - | 0 W/m² | - |
| 1778072676 | 26.11° C | 48% | 966 hPa | - | - | 0 W/m² | - |
| 1778072364 | 26.11° C | 48% | 966 hPa | - | - | 0 W/m² | - |
| 1778072053 | 26.67° C | 48% | 966 hPa | - | - | 0 W/m² | - |
| 1778071741 | 26.11° C | 46% | 966 hPa | - | - | 0 W/m² | - |
| 1778071430 | 26.11° C | 45% | 966 hPa | - | - | 0 W/m² | - |
| 1778071119 | 26.67° C | 46% | 966 hPa | - | - | 0 W/m² | - |
| 1778070808 | 26.67° C | 47% | 966 hPa | - | - | 0 W/m² | - |
| 1778070496 | 26.11° C | 47% | 966 hPa | - | - | 0 W/m² | - |
| 1778070185 | 26.67° C | 45% | 966 hPa | - | - | 0 W/m² | - |
| 1778069874 | 28.33° C | 47% | 966 hPa | - | - | 0 W/m² | - |
| 1778069562 | 27.78° C | 48% | 966 hPa | - | - | 0 W/m² | - |
| 1778069251 | 27.22° C | 48% | 966 hPa | - | - | 0 W/m² | - |
| 1778068939 | 27.78° C | 48% | 966 hPa | - | - | 0 W/m² | - |
| 1778068628 | 27.22° C | 45% | 967 hPa | - | - | 0 W/m² | - |
| 1778068316 | 27.22° C | 45% | 967 hPa | - | - | 0 W/m² | - |
| 1778068005 | 27.78° C | 47% | 967 hPa | - | - | 0 W/m² | - |
* Rain since midnight (hover to see other rain measurements)
** Current wind speed in m/s (hover to see current wind gust speed)